Tracking 31027 objects as of 19-Jul-2025
HD Live streaming from Space Station
objects crossing your sky now

DELTA 1 DEB

Track DELTA 1 DEB now!
10-day predictions


NORAD ID: 14883
Int'l Code: 1973-086GS
Perigee: 1,483.1 km
Apogee: 1,891.8 km
Inclination: 102.0 °
Period: 120.0 minutes
Semi major axis: 8058 km
RCS: 0.0421 m2 (small)
Launch date: November 6, 1973
Source: United States (US)
Launch site: AIR FORCE WESTERN TEST RANGE (AFWTR)

Note: This is SATELLITE DEBRIS
Your satellite tracking list
STARLINK-2062
Track 1 satellite(s)




NASA's NSSDC Master Catalog

Two Line Element Set (TLE):
1 14883U 73086GS  25199.07315815  .00000329  00000-0  41566-2 0  9992
2 14883 102.0248  66.1296 0253616  12.3760 148.8459 12.00127016587510
Source of the keplerian elements: AFSPC